| time (UTC) | temp C | wind direction | speed KPH | gust KPH | rain 1hr cm | rain 24hr cm | rain mn cm | humidity % | barometer mb |
| 20260508111402 | 16 | 142 | 8.0 | 22.5 | 0.00 | 0.00 | 0.00 | 43 | 1019.3 |
| 20260508110402 | 16 | 148 | 11.3 | 20.9 | 0.00 | 0.00 | 0.00 | 40 | 1019.3 |
| 20260508105402 | 16 | 76 | 6.4 | 16.1 | 0.00 | 0.00 | 0.00 | 46 | 1019.4 |
| 20260508104405 | 15 | 59 | 9.7 | 22.5 | 0.00 | 0.00 | 0.00 | 44 | 1019.5 |
| 20260508102402 | 15 | 109 | 11.3 | 25.7 | 0.00 | 0.00 | 0.00 | 44 | 1019.4 |
| 20260508101402 | 15 | 132 | 9.7 | 22.5 | 0.00 | 0.00 | 0.00 | 47 | 1019.5 |
| 20260508100405 | 15 | 74 | 14.5 | 22.5 | 0.00 | 0.00 | 0.00 | 46 | 1019.7 |
| 20260508095405 | 15 | 134 | 12.9 | 24.1 | 0.00 | 0.00 | 0.00 | 47 | 1019.6 |
| 20260508094402 | 15 | 124 | 8.0 | 20.9 | 0.00 | 0.00 | 0.00 | 47 | 1019.7 |
| 20260508093403 | 15 | 107 | 9.7 | 20.9 | 0.00 | 0.00 | 0.00 | 50 | 1019.7 |
| 20260508092402 | 15 | 132 | 12.9 | 22.5 | 0.00 | 0.00 | 0.00 | 45 | 1019.8 |
| 20260508091403 | 14 | 108 | 11.3 | 22.5 | 0.00 | 0.00 | 0.00 | 46 | 1019.8 |
| 20260508090403 | 14 | 154 | 9.7 | 19.3 | 0.00 | 0.00 | 0.00 | 46 | 1019.9 |
| 20260508085403 | 13 | 138 | 11.3 | 24.1 | 0.00 | 0.00 | 0.00 | 46 | 1019.8 |
| 20260508084403 | 13 | 91 | 14.5 | 24.1 | 0.00 | 0.00 | 0.00 | 48 | 1019.9 |
| 20260508083403 | 13 | 165 | 12.9 | 20.9 | 0.00 | 0.00 | 0.00 | 52 | 1019.9 |
| 20260508082403 | 13 | 125 | 8.0 | 16.1 | 0.00 | 0.00 | 0.00 | 62 | 1019.8 |
| 20260508081406 | 13 | 126 | 11.3 | 19.3 | 0.00 | 0.00 | 0.00 | 58 | 1019.8 |
| 20260508080403 | 13 | 33 | 8.0 | 16.1 | 0.00 | 0.00 | 0.00 | 67 | 1019.9 |
| 20260508075404 | 13 | 94 | 4.8 | 14.5 | 0.00 | 0.00 | 0.00 | 70 | 1019.8 |
| 20260508074403 | 12 | 120 | 6.4 | 17.7 | 0.00 | 0.00 | 0.00 | 72 | 1019.9 |
| 20260508071403 | 12 | 54 | 4.8 | 11.3 | 0.00 | 0.00 | 0.00 | 78 | 1019.8 |
| 20260508070403 | 12 | 114 | 6.4 | 14.5 | 0.00 | 0.00 | 0.00 | 78 | 1019.7 |
| 20260508065404 | 11 | 125 | 3.2 | 11.3 | 0.00 | 0.00 | 0.00 | 81 | 1019.7 |
| 20260508064404 | 11 | 87 | 3.2 | 9.7 | 0.00 | 0.00 | 0.00 | 82 | 1019.5 |
| 20260508063407 | 10 | 41 | 3.2 | 11.3 | 0.00 | 0.00 | 0.00 | 84 | 1019.4 |
| 20260508062404 | 10 | 94 | 6.4 | 11.3 | 0.00 | 0.00 | 0.00 | 87 | 1019.4 |
| 20260508061404 | 9 | 115 | 6.4 | 11.3 | 0.00 | 0.00 | 0.00 | 90 | 1019.4 |
| 20260508060404 | 8 | 135 | 4.8 | 6.4 | 0.00 | 0.00 | 0.00 | 93 | 1019.3 |
| 20260508054407 | 7 | 89 | 3.2 | 9.7 | 0.00 | 0.00 | 0.00 | 95 | 1019.2 |
| 20260508053404 | 7 | 110 | 3.2 | 9.7 | 0.00 | 0.00 | 0.00 | 96 | 1019.2 |
| 20260508052404 | 7 | 84 | 4.8 | 11.3 | 0.00 | 0.00 | 0.00 | 96 | 1019.2 |
| 20260508051404 | 6 | 96 | 3.2 | 6.4 | 0.00 | 0.00 | 0.00 | 96 | 1019.1 |
| 20260508050407 | 5 | 115 | 1.6 | 3.2 | 0.00 | 0.00 | 0.00 | 95 | 1019.1 |
| 20260508045405 | 5 | 115 | 1.6 | 3.2 | 0.00 | 0.00 | 0.00 | 95 | 1019.0 |
| 20260508044404 | 4 | 115 | 1.6 | 4.8 | 0.00 | 0.00 | 0.00 | 95 | 1018.9 |
| 20260508043404 | 4 | 153 | 1.6 | 3.2 | 0.00 | 0.00 | 0.00 | 95 | 1018.9 |
| 20260508041405 | 4 | 160 | 0.0 | 0.0 | 0.00 | 0.00 | 0.00 | 95 | 1018.8 |
| 20260508040405 | 4 | 160 | 0.0 | 1.6 | 0.00 | 0.00 | 0.00 | 94 | 1018.8 |
| 20260508035405 | 4 | 160 | 0.0 | 1.6 | 0.00 | 0.00 | 0.00 | 94 | 1018.8 |
| 20260508034405 | 4 | 160 | 0.0 | 1.6 | 0.00 | 0.00 | 0.00 | 94 | 1018.7 |
| 20260508033405 | 4 | 160 | 0.0 | 1.6 | 0.00 | 0.00 | 0.00 | 94 | 1018.7 |
| 20260508032405 | 4 | 160 | 0.0 | 1.6 | 0.00 | 0.00 | 0.00 | 94 | 1018.8 |
| 20260508031408 | 4 | 160 | 0.0 | 0.0 | 0.00 | 0.00 | 0.00 | 94 | 1018.7 |
| 20260508030405 | 4 | 160 | 0.0 | 0.0 | 0.00 | 0.00 | 0.00 | 94 | 1018.6 |
| 20260508025406 | 5 | 160 | 0.0 | 0.0 | 0.00 | 0.00 | 0.00 | 94 | 1018.7 |
| 20260508024405 | 5 | 160 | 0.0 | 0.0 | 0.00 | 0.00 | 0.00 | 94 | 1018.7 |
| 20260508023405 | 5 | 160 | 0.0 | 0.0 | 0.00 | 0.00 | 0.00 | 94 | 1018.7 |
| 20260508022405 | 5 | 160 | 0.0 | 0.0 | 0.00 | 0.00 | 0.00 | 93 | 1018.7 |
| 20260508021405 | 5 | 160 | 0.0 | 0.0 | 0.00 | 0.00 | 0.00 | 93 | 1018.8 |
| 20260508020406 | 5 | 160 | 0.0 | 0.0 | 0.00 | 0.00 | 0.00 | 93 | 1018.7 |
| 20260508015406 | 6 | 160 | 0.0 | 0.0 | 0.00 | 0.00 | 0.00 | 93 | 1018.7 |
| 20260508014406 | 6 | 160 | 0.0 | 0.0 | 0.00 | 0.00 | 0.00 | 93 | 1018.7 |
| 20260508013405 | 6 | 160 | 0.0 | 0.0 | 0.00 | 0.00 | 0.00 | 93 | 1018.6 |
| 20260508012409 | 6 | 160 | 0.0 | 0.0 | 0.00 | 0.00 | 0.00 | 93 | 1018.7 |
| 20260508011406 | 6 | 160 | 0.0 | 0.0 | 0.00 | 0.00 | 0.00 | 93 | 1018.7 |
| 20260508010406 | 6 | 160 | 0.0 | 0.0 | 0.00 | 0.00 | 0.00 | 93 | 1018.6 |
| 20260508005409 | 6 | 160 | 0.0 | 0.0 | 0.00 | 0.00 | 0.00 | 92 | 1018.6 |
| 20260508004406 | 7 | 160 | 0.0 | 0.0 | 0.00 | 0.00 | 0.00 | 92 | 1018.5 |
| 20260508003406 | 7 | 160 | 0.0 | 0.0 | 0.00 | 0.00 | 0.00 | 92 | 1018.5 |
| 20260508002406 | 7 | 160 | 0.0 | 0.0 | 0.00 | 0.00 | 0.00 | 92 | 1018.4 |
| 20260508001406 | 7 | 160 | 0.0 | 0.0 | 0.00 | 0.00 | 0.00 | 92 | 1018.4 |
| 20260508000406 | 7 | 160 | 0.0 | 0.0 | 0.00 | 0.00 | 0.00 | 92 | 1018.4 |
| 20260507235407 | 7 | 160 | 0.0 | 0.0 | 0.00 | 0.00 | 0.00 | 92 | 1018.5 |
| 20260507233406 | 7 | 160 | 0.0 | 0.0 | 0.00 | 0.00 | 0.00 | 92 | 1018.5 |
| 20260507230407 | 7 | 160 | 0.0 | 0.0 | 0.00 | 0.00 | 0.00 | 91 | 1018.5 |
| 20260507225410 | 7 | 160 | 0.0 | 0.0 | 0.00 | 0.00 | 0.00 | 90 | 1018.5 |
| 20260507224407 | 7 | 160 | 0.0 | 1.6 | 0.00 | 0.00 | 0.00 | 90 | 1018.4 |
| 20260507223407 | 7 | 160 | 1.6 | 3.2 | 0.00 | 0.00 | 0.00 | 89 | 1018.4 |
| 20260507221407 | 7 | 160 | 0.0 | 3.2 | 0.00 | 0.00 | 0.00 | 89 | 1018.3 |
| 20260507220407 | 7 | 160 | 0.0 | 0.0 | 0.00 | 0.00 | 0.00 | 89 | 1018.3 |
| 20260507212407 | 8 | 160 | 0.0 | 3.2 | 0.00 | 0.00 | 0.00 | 86 | 1018.2 |
| 20260507211408 | 8 | 160 | 0.0 | 3.2 | 0.00 | 0.00 | 0.00 | 86 | 1018.1 |
| 20260507210407 | 9 | 160 | 0.0 | 1.6 | 0.00 | 0.00 | 0.00 | 85 | 1018.1 |
| 20260507203407 | 9 | 160 | 0.0 | 0.0 | 0.00 | 0.00 | 0.00 | 84 | 1018.0 |
| 20260507202408 | 9 | 160 | 0.0 | 1.6 | 0.00 | 0.00 | 0.00 | 84 | 1017.9 |
| 20260507201407 | 10 | 161 | 3.2 | 6.4 | 0.00 | 0.00 | 0.00 | 84 | 1017.7 |
| 20260507200407 | 10 | 161 | 0.0 | 1.6 | 0.00 | 0.00 | 0.00 | 82 | 1017.7 |
| 20260507195408 | 10 | 161 | 0.0 | 0.0 | 0.00 | 0.00 | 0.00 | 81 | 1017.4 |
| 20260507194408 | 10 | 161 | 0.0 | 1.6 | 0.00 | 0.00 | 0.00 | 78 | 1017.4 |
| 20260507193408 | 11 | 161 | 1.6 | 1.6 | 0.00 | 0.00 | 0.00 | 76 | 1017.3 |
| 20260507192408 | 11 | 161 | 1.6 | 6.4 | 0.00 | 0.00 | 0.00 | 75 | 1017.1 |
| 20260507191408 | 11 | 172 | 1.6 | 6.4 | 0.00 | 0.00 | 0.00 | 73 | 1017.0 |
| 20260507185408 | 12 | 178 | 3.2 | 4.8 | 0.00 | 0.00 | 0.00 | 70 | 1016.9 |
| 20260507183408 | 13 | 153 | 4.8 | 9.7 | 0.00 | 0.00 | 0.00 | 67 | 1016.7 |
| 20260507182409 | 13 | 157 | 6.4 | 12.9 | 0.00 | 0.00 | 0.00 | 66 | 1016.6 |
| 20260507181408 | 13 | 122 | 4.8 | 9.7 | 0.00 | 0.00 | 0.00 | 65 | 1016.6 |
| 20260507180408 | 13 | 148 | 4.8 | 9.7 | 0.00 | 0.00 | 0.00 | 64 | 1016.5 |
| 20260507174411 | 15 | 177 | 6.4 | 12.9 | 0.00 | 0.00 | 0.00 | 60 | 1016.5 |
| 20260507170409 | 15 | 130 | 4.8 | 16.1 | 0.00 | 0.00 | 0.00 | 58 | 1016.0 |
| 20260507165409 | 15 | 136 | 9.7 | 14.5 | 0.00 | 0.00 | 0.00 | 58 | 1016.1 |
| 20260507161409 | 16 | 164 | 8.0 | 16.1 | 0.00 | 0.00 | 0.00 | 57 | 1015.9 |
| 20260507160409 | 16 | 102 | 8.0 | 16.1 | 0.00 | 0.00 | 0.00 | 57 | 1016.0 |
| 20260507155409 | 16 | 115 | 6.4 | 14.5 | 0.00 | 0.00 | 0.00 | 56 | 1016.0 |
| 20260507153409 | 16 | 142 | 9.7 | 25.7 | 0.00 | 0.00 | 0.00 | 58 | 1015.9 |
| 20260507152409 | 16 | 113 | 8.0 | 14.5 | 0.00 | 0.00 | 0.00 | 57 | 1015.9 |
| 20260507151409 | 16 | 142 | 6.4 | 14.5 | 0.00 | 0.00 | 0.00 | 60 | 1015.9 |
| 20260507150409 | 15 | 103 | 8.0 | 16.1 | 0.00 | 0.00 | 0.00 | 61 | 1015.9 |
| 20260507145410 | 15 | 131 | 4.8 | 14.5 | 0.00 | 0.00 | 0.00 | 59 | 1015.9 |
| 20260507144410 | 16 | 81 | 8.0 | 16.1 | 0.00 | 0.00 | 0.00 | 58 | 1015.8 |
| 20260507142504 | 16 | 52 | 4.8 | 16.1 | 0.00 | 0.00 | 0.00 | 57 | 1015.7 |
| 20260507141401 | 17 | 103 | 6.4 | 17.7 | 0.00 | 0.00 | 0.00 | 52 | 1015.8 |
| 20260507140401 | 17 | 19 | 6.4 | 14.5 | 0.00 | 0.00 | 0.00 | 54 | 1015.8 |
| 20260507135401 | 17 | 130 | 9.7 | 20.9 | 0.00 | 0.00 | 0.00 | 54 | 1015.9 |
| 20260507134404 | 16 | 106 | 8.0 | 14.5 | 0.00 | 0.00 | 0.00 | 53 | 1015.9 |
| 20260507132401 | 17 | 88 | 8.0 | 16.1 | 0.00 | 0.00 | 0.00 | 53 | 1015.8 |
| 20260507131401 | 16 | 68 | 9.7 | 17.7 | 0.00 | 0.00 | 0.00 | 52 | 1015.8 |
| 20260507125401 | 16 | 40 | 4.8 | 16.1 | 0.00 | 0.00 | 0.00 | 58 | 1015.8 |
| 20260507124401 | 16 | 107 | 8.0 | 17.7 | 0.00 | 0.00 | 0.00 | 55 | 1015.7 |
| 20260507123404 | 16 | 9 | 6.4 | 19.3 | 0.00 | 0.00 | 0.00 | 58 | 1015.7 |
| 20260507122401 | 16 | 105 | 6.4 | 14.5 | 0.00 | 0.00 | 0.00 | 57 | 1015.5 |
| 20260507121402 | 16 | 109 | 6.4 | 17.7 | 0.00 | 0.00 | 0.00 | 61 | 1015.5 |
| 20260507120401 | 16 | 79 | 6.4 | 16.1 | 0.00 | 0.00 | 0.00 | 58 | 1015.5 |
| 20260507115402 | 16 | 65 | 6.4 | 19.3 | 0.00 | 0.00 | 0.00 | 59 | 1015.5 |
| 20260507114402 | 15 | 86 | 4.8 | 12.9 | 0.00 | 0.00 | 0.00 | 60 | 1015.5 |